Fredericksburg, VA

8:11 AM EST on December 16, 2019 (GMT -0500)
Shannon

Weather History for KEZF - October, 2019

Change the Weather History Date:

Tuesday, October 29, 2019

  Actual Average (WUND) Record (WUND)
Temperature  
Mean Temperature 58 °F -  
Max Temperature 68 °F - - (-1)
Min Temperature 48 °F - - (-1)
Degree Days  
Heating Degree Days 7    
Growing Degree Days 8 (Base 50)    
Moisture  
Dew Point 54 °F    
Average Humidity 92    
Maximum Humidity 100    
Minimum Humidity 68    
Precipitation  
Precipitation 0.00 in - - ()
Sea Level Pressure  
Sea Level Pressure 30.24 in    
Wind  
Wind Speed 1 mph ()    
Max Wind Speed 6 mph    
Max Gust Speed -    
Visibility 10.0 miles    
Events      
Averages and records for this station are not official NWS values.
T = Trace of Precipitation, MM = Missing Value Source: Averaged Metar Reports

Daily Weather History Graph

Daily Weather History Graph

Search for Another Location

Airport or City:

Astronomy

Oct. 29, 2019 Rise Set
Actual Time 7:32 AM EDT 6:13 PM EDT
Civil Twilight 7:05 AM EDT 6:41 PM EDT
Nautical Twilight 6:34 AM EDT 7:12 PM EDT
Astronomical Twilight 6:03 AM EDT 7:42 PM EDT
Moon 9:02 AM EDT (10/29) 7:38 PM EDT (10/29)
Length of Visible Light 11h 35m
Length of Day
10h 41m
Waxing Crescent, 3% of the Moon is Illuminated
Oct 29
Waxing Crescent
Nov 4
First Quarter
Nov 12
Full
Nov 19
Last Quarter
Nov 26
New

Hourly Weather History & Observations

Time (EDT) Temp. Dew Point Humidity Pressure Visibility Wind Dir Wind Speed Gust Speed Precip Events Conditions
12:15 AM 49.6 °F 49.6 °F 100% 30.22 in 10.0 mi Calm Calm - N/A   Clear
12:35 AM 50.0 °F 50.0 °F 100% 30.22 in 10.0 mi Calm Calm - N/A   Clear
12:55 AM 49.1 °F 49.1 °F 100% 30.22 in 10.0 mi Calm Calm - N/A   Clear
1:15 AM 49.1 °F 49.1 °F 100% 30.23 in 10.0 mi Calm Calm - N/A   Clear
1:35 AM 49.3 °F 49.3 °F 100% 30.23 in 10.0 mi Calm Calm - N/A   Clear
1:55 AM 48.7 °F 48.7 °F 100% 30.24 in 10.0 mi Calm Calm - N/A   Clear
2:15 AM 48.6 °F 48.6 °F 100% 30.24 in 10.0 mi Calm Calm - N/A   Clear
2:35 AM 48.2 °F 48.2 °F 100% 30.24 in 10.0 mi Calm Calm - N/A   Clear
2:55 AM 48.6 °F 48.6 °F 100% 30.23 in 10.0 mi Calm Calm - N/A   Clear
3:15 AM 48.0 °F 48.0 °F 100% 30.23 in 10.0 mi Calm Calm - N/A   Scattered Clouds
3:35 AM 48.4 °F 48.4 °F 100% 30.23 in 10.0 mi Calm Calm - N/A   Scattered Clouds
3:55 AM 48.6 °F 48.6 °F 100% 30.23 in 10.0 mi Calm Calm - N/A   Scattered Clouds
4:15 AM 49.1 °F 49.1 °F 100% 30.23 in 10.0 mi Calm Calm - N/A   Mostly Cloudy
4:35 AM 48.7 °F 48.7 °F 100% 30.22 in 10.0 mi Calm Calm - N/A   Overcast
4:55 AM 48.6 °F 48.6 °F 100% 30.22 in 10.0 mi Calm Calm - N/A   Mostly Cloudy
5:15 AM 48.4 °F 48.4 °F 100% 30.23 in 10.0 mi Calm Calm - N/A   Scattered Clouds
5:35 AM 48.2 °F 48.2 °F 100% 30.23 in 10.0 mi Calm Calm - N/A   Clear
5:55 AM 48.2 °F 48.2 °F 100% 30.24 in 10.0 mi Calm Calm - N/A   Scattered Clouds
6:15 AM 48.4 °F 48.4 °F 100% 30.24 in 10.0 mi Calm Calm - N/A   Mostly Cloudy
6:35 AM 49.6 °F 49.6 °F 100% 30.24 in 10.0 mi Calm Calm - N/A   Overcast
7:35 AM 50.0 °F 50.0 °F 100% 30.24 in 10.0 mi Calm Calm - N/A   Mostly Cloudy
7:55 AM 49.6 °F 49.6 °F 100% 30.24 in 10.0 mi Calm Calm - N/A   Scattered Clouds
8:15 AM 50.2 °F 50.2 °F 100% 30.25 in 10.0 mi Calm Calm - N/A   Scattered Clouds
8:55 AM 53.6 °F 53.6 °F 100% 30.26 in 10.0 mi Calm Calm - N/A   Mostly Cloudy
9:35 AM 56.3 °F 55.8 °F 98% 30.27 in 10.0 mi Calm Calm - N/A   Overcast
9:55 AM 57.2 °F 56.5 °F 97% 30.27 in 10.0 mi Calm Calm - N/A   Overcast
10:15 AM 58.1 °F 56.7 °F 95% 30.28 in 10.0 mi Calm Calm - N/A   Overcast
10:35 AM 58.6 °F 56.8 °F 94% 30.28 in 10.0 mi Calm Calm - N/A   Overcast
10:55 AM 59.2 °F 57.0 °F 93% 30.27 in 10.0 mi Calm Calm - N/A   Overcast
11:15 AM 60.1 °F 57.7 °F 92% 30.27 in 10.0 mi Calm Calm - N/A   Overcast
11:35 AM 61.0 °F 57.4 °F 88% 30.28 in 10.0 mi Calm Calm - N/A   Overcast
12:15 PM 62.6 °F 57.7 °F 84% 30.27 in 10.0 mi ESE 4.6 mph - N/A   Overcast
12:35 PM 63.9 °F 58.1 °F 81% 30.26 in 10.0 mi SE 5.8 mph - N/A   Overcast
12:55 PM 65.5 °F 57.6 °F 76% 30.26 in 10.0 mi SSE 5.8 mph - N/A   Overcast
1:15 PM 65.7 °F 57.0 °F 74% 30.25 in 10.0 mi ESE 4.6 mph - N/A   Overcast
1:35 PM 65.1 °F 57.6 °F 76% 30.25 in 10.0 mi Calm Calm - N/A   Overcast
1:55 PM 66.2 °F 57.4 °F 73% 30.24 in 10.0 mi SE 4.6 mph - N/A   Overcast
2:15 PM 67.1 °F 57.2 °F 70% 30.23 in 10.0 mi SSE 3.5 mph - N/A   Overcast
2:35 PM 68.0 °F 57.6 °F 69% 30.22 in 10.0 mi SE 4.6 mph - N/A   Overcast
2:55 PM 67.5 °F 57.4 °F 70% 30.22 in 10.0 mi ESE 3.5 mph - N/A   Overcast
3:15 PM 68.5 °F 57.9 °F 69% 30.21 in 10.0 mi South 4.6 mph - N/A   Mostly Cloudy
3:35 PM 68.9 °F 58.1 °F 68% 30.21 in 10.0 mi SE 4.6 mph - N/A   Mostly Cloudy
3:55 PM 68.2 °F 57.7 °F 69% 30.22 in 10.0 mi SW 3.5 mph - N/A   Mostly Cloudy
4:15 PM 68.0 °F 57.9 °F 70% 30.22 in 10.0 mi South 4.6 mph - N/A   Overcast
4:35 PM 68.0 °F 58.1 °F 71% 30.22 in 10.0 mi SSW 4.6 mph - N/A   Overcast
5:15 PM 67.5 °F 58.3 °F 72% 30.22 in 10.0 mi SSE 5.8 mph - N/A   Overcast
5:35 PM 66.9 °F 58.5 °F 74% 30.22 in 10.0 mi SE 5.8 mph - N/A   Scattered Clouds
5:55 PM 65.8 °F 58.3 °F 77% 30.23 in 10.0 mi SSE 3.5 mph - N/A   Clear
6:15 PM 64.0 °F 58.8 °F 83% 30.22 in 10.0 mi Calm Calm - N/A   Clear
6:35 PM 61.9 °F 58.8 °F 90% 30.22 in 10.0 mi Calm Calm - N/A   Clear
6:55 PM 59.9 °F 58.3 °F 94% 30.22 in 10.0 mi Calm Calm - N/A   Clear
7:15 PM 58.6 °F 58.1 °F 98% 30.23 in 10.0 mi Calm Calm - N/A   Clear
7:35 PM 59.0 °F 58.5 °F 98% 30.24 in 10.0 mi Calm Calm - N/A   Clear
7:55 PM 58.3 °F 58.3 °F 100% 30.24 in 10.0 mi Calm Calm - N/A   Clear
8:15 PM 57.4 °F 57.4 °F 100% 30.25 in 10.0 mi Calm Calm - N/A   Clear
8:35 PM 57.2 °F 57.2 °F 100% 30.25 in 10.0 mi Calm Calm - N/A   Clear
8:55 PM 56.7 °F 56.7 °F 100% 30.25 in 10.0 mi Calm Calm - N/A   Clear
9:15 PM 56.3 °F 56.3 °F 100% 30.25 in 10.0 mi Calm Calm - N/A   Clear
9:35 PM 54.7 °F 54.7 °F 100% 30.25 in 7.0 mi Calm Calm - N/A   Scattered Clouds
9:55 PM 55.6 °F 55.6 °F 100% 30.25 in 10.0 mi Calm Calm - N/A   Scattered Clouds
10:15 PM 55.2 °F 55.2 °F 100% 30.25 in 10.0 mi Calm Calm - N/A   Clear
10:35 PM 55.0 °F 55.0 °F 100% 30.25 in 10.0 mi Calm Calm - N/A   Clear
10:55 PM 54.7 °F 54.7 °F 100% 30.26 in 10.0 mi Calm Calm - N/A   Clear
11:15 PM 54.5 °F 54.5 °F 100% 30.25 in 10.0 mi Calm Calm - N/A   Clear
11:35 PM 54.1 °F 54.1 °F 100% 30.25 in 10.0 mi Calm Calm - N/A   Clear
11:55 PM 54.1 °F 54.1 °F 100% 30.26 in 10.0 mi Calm Calm - N/A   Clear